Location: Dead Woman Crossing
(43.5369°N, 106.3228°W)
Time: 16:58:09
(UTC+00:00)

QB50P2 - Pass Details

Date: 04 July 2022
Orbit: 590 x 605 km, 97.9° (Epoch: 18 August)

Event Time Altitude Azimuth Distance (km) Brightness Sun altitude
Rises 08:39:45 0° 11° (N) 2,864 ? -20.5°
Reaches altitude 10° 08:41:56 10° 10° (N) 1,958 ? -20.3°
Maximum altitude 08:46:11 76° 286° (WNW) 629 ? -20.0°
Enters shadow 08:47:10 51° 214° (SW) 763 ? -19.9°
